Location: Rancho Del Sol Observatory
(38.7214°N, 120.6350°W)
Time: 16:54:14
(UTC-08:00)

Courier 1B - Pass Details

Date: 25 January 2020
Orbit: 962 x 1209 km, 28.3° (Epoch: 20 February)

Event Time Altitude Azimuth Distance (km) Brightness Sun altitude
Exits shadow 04:25:57 38° 179° (S) 1,702 8.6 -32.8°
Maximum altitude 04:26:04 38° 177° (S) 1,702 8.7 -32.7°
Drops below altitude 10° 04:33:03 10° 113° (ESE) 3,113 10.9 -31.4°
Sets 04:36:09 0° 105° (ESE) 4,094 11.8 -30.8°
